| time (UTC) | temp C | wind direction | speed KPH | gust KPH | rain 1hr cm | rain 24hr cm | rain mn cm | humidity % | barometer mb |
| 20260506084529 | 23 | 18 | 3.2 | 9.7 | 0.00 | 0.03 | 0.03 | 90 | 1009.8 |
| 20260506084009 | 23 | 22 | 4.8 | 11.3 | 0.00 | 0.03 | 0.03 | 90 | 1009.7 |
| 20260506083508 | 23 | 17 | 4.8 | 16.1 | 0.00 | 0.03 | 0.03 | 90 | 1009.8 |
| 20260506082511 | 23 | 19 | 3.2 | 16.1 | 0.00 | 0.03 | 0.03 | 90 | 1009.7 |
| 20260506082016 | 23 | 23 | 4.8 | 16.1 | 0.00 | 0.03 | 0.03 | 90 | 1009.7 |
| 20260506080516 | 23 | 15 | 3.2 | 9.7 | 0.00 | 0.03 | 0.03 | 89 | 1009.7 |
| 20260506073512 | 23 | 19 | 1.6 | 14.5 | 0.03 | 0.05 | 0.03 | 89 | 1010.0 |
| 20260506073003 | 23 | 26 | 3.2 | 14.5 | 0.03 | 0.05 | 0.03 | 89 | 1010.0 |
| 20260506072002 | 23 | 21 | 1.6 | 14.5 | 0.03 | 0.05 | 0.03 | 89 | 1010.2 |
| 20260506071503 | 23 | 26 | 8.0 | 14.5 | 0.03 | 0.05 | 0.03 | 89 | 1010.2 |
| 20260506071008 | 23 | 19 | 4.8 | 14.5 | 0.03 | 0.05 | 0.03 | 89 | 1010.3 |
| 20260506070507 | 23 | 22 | 4.8 | 14.5 | 0.03 | 0.05 | 0.03 | 89 | 1010.3 |
| 20260506062503 | 23 | 17 | 1.6 | 8.0 | 0.00 | 0.03 | 0.00 | 89 | 1010.3 |
| 20260506062002 | 23 | 24 | 1.6 | 8.0 | 0.00 | 0.03 | 0.00 | 89 | 1010.2 |
| 20260506061503 | 23 | 22 | 1.6 | 6.4 | 0.00 | 0.03 | 0.00 | 89 | 1010.2 |
| 20260506061006 | 23 | 22 | 1.6 | 6.4 | 0.00 | 0.03 | 0.00 | 89 | 1010.3 |
| 20260506060506 | 23 | 18 | 0.0 | 12.9 | 0.00 | 0.03 | 0.00 | 89 | 1010.3 |
| 20260506051012 | 23 | 20 | 4.8 | 16.1 | 0.00 | 0.03 | 0.00 | 89 | 1010.3 |
| 20260506050506 | 23 | 24 | 6.4 | 14.5 | 0.00 | 0.03 | 0.00 | 89 | 1010.3 |
| 20260506045005 | 23 | 20 | 1.6 | 12.9 | 0.00 | 0.03 | 0.03 | 89 | 1010.2 |
| 20260506044502 | 23 | 20 | 3.2 | 12.9 | 0.00 | 0.03 | 0.03 | 89 | 1010.3 |
| 20260506044004 | 23 | 19 | 3.2 | 16.1 | 0.00 | 0.03 | 0.03 | 89 | 1010.3 |
| 20260506043008 | 23 | 22 | 6.4 | 19.3 | 0.00 | 0.03 | 0.03 | 89 | 1010.0 |
| 20260506042505 | 23 | 26 | 8.0 | 19.3 | 0.00 | 0.03 | 0.03 | 89 | 1010.1 |
| 20260506042010 | 23 | 24 | 6.4 | 17.7 | 0.00 | 0.03 | 0.03 | 89 | 1010.0 |
| 20260506041523 | 23 | 24 | 6.4 | 17.7 | 0.00 | 0.03 | 0.03 | 89 | 1010.1 |
| 20260506041009 | 23 | 22 | 6.4 | 17.7 | 0.00 | 0.03 | 0.03 | 89 | 1010.2 |
| 20260506040512 | 23 | 18 | 3.2 | 17.7 | 0.00 | 0.03 | 0.03 | 89 | 1010.1 |
| 20260506040017 | 23 | 23 | 6.4 | 14.5 | 0.00 | 0.03 | 0.03 | 89 | 1010.0 |
| 20260506035508 | 23 | 20 | 4.8 | 14.5 | 0.00 | 0.03 | 0.03 | 88 | 1009.8 |
| 20260506035009 | 23 | 26 | 4.8 | 14.5 | 0.00 | 0.03 | 0.03 | 88 | 1009.8 |
| 20260506033504 | 23 | 27 | 0.0 | 14.5 | 0.00 | 0.03 | 0.03 | 88 | 1009.7 |
| 20260506033029 | 23 | 21 | 4.8 | 12.9 | 0.00 | 0.03 | 0.03 | 88 | 1009.6 |
| 20260506032508 | 23 | 19 | 1.6 | 16.1 | 0.00 | 0.03 | 0.03 | 88 | 1009.5 |
| 20260506032007 | 23 | 22 | 6.4 | 16.1 | 0.00 | 0.03 | 0.03 | 88 | 1009.5 |
| 20260506031514 | 23 | 20 | 4.8 | 14.5 | 0.00 | 0.03 | 0.03 | 88 | 1009.6 |
| 20260506031007 | 23 | 21 | 3.2 | 14.5 | 0.00 | 0.03 | 0.03 | 88 | 1009.5 |
| 20260506030513 | 24 | 26 | 3.2 | 16.1 | 0.00 | 0.03 | 0.03 | 88 | 1009.5 |
| 20260506030030 | 24 | 25 | 4.8 | 16.1 | 0.00 | 0.03 | 0.03 | 88 | 1009.5 |
| 20260506025009 | 24 | 24 | 4.8 | 11.3 | 0.00 | 0.03 | 0.03 | 88 | 1009.6 |
| 20260506024522 | 24 | 28 | 3.2 | 12.9 | 0.00 | 0.03 | 0.03 | 88 | 1009.6 |
| 20260506024008 | 24 | 22 | 4.8 | 12.9 | 0.00 | 0.03 | 0.03 | 88 | 1009.4 |
| 20260506023508 | 24 | 19 | 3.2 | 14.5 | 0.00 | 0.03 | 0.03 | 88 | 1009.3 |
| 20260506022005 | 24 | 22 | 3.2 | 12.9 | 0.00 | 0.03 | 0.03 | 87 | 1008.9 |
| 20260506021008 | 24 | 22 | 3.2 | 16.1 | 0.00 | 0.03 | 0.03 | 87 | 1008.7 |
| 20260506020507 | 24 | 24 | 3.2 | 17.7 | 0.00 | 0.03 | 0.03 | 87 | 1008.6 |
| 20260506020017 | 24 | 23 | 6.4 | 22.5 | 0.00 | 0.03 | 0.03 | 87 | 1008.6 |
| 20260506015508 | 24 | 17 | 4.8 | 22.5 | 0.00 | 0.03 | 0.03 | 87 | 1008.5 |
| 20260506014008 | 24 | 25 | 3.2 | 17.7 | 0.00 | 0.03 | 0.03 | 87 | 1008.3 |
| 20260506013027 | 24 | 22 | 1.6 | 14.5 | 0.00 | 0.03 | 0.03 | 86 | 1008.1 |
| 20260506012509 | 24 | 17 | 3.2 | 20.9 | 0.00 | 0.03 | 0.03 | 86 | 1007.9 |
| 20260506012009 | 25 | 22 | 6.4 | 20.9 | 0.00 | 0.03 | 0.03 | 86 | 1007.9 |
| 20260506011526 | 25 | 24 | 3.2 | 12.9 | 0.00 | 0.03 | 0.03 | 86 | 1007.7 |
| 20260506011005 | 25 | 22 | 6.4 | 0.0 | 0.00 | 0.03 | 0.03 | 86 | 1007.8 |
| 20260506010513 | -17 | 0.0 | 0.0 | 0.00 | 0.03 | 0.03 | 1007.9 | ||
| 20260506010030 | 25 | 0.0 | 0.0 | 0.00 | 0.03 | 0.03 | 85 | 1007.9 | |
| 20260506005513 | 25 | 0.0 | 0.0 | 0.00 | 0.03 | 0.03 | 85 | 1007.9 | |
| 20260506004539 | -17 | 0.0 | 0.0 | 0.00 | 0.03 | 0.03 | 1007.6 | ||
| 20260506004013 | -17 | 0.0 | 0.0 | 0.00 | 0.03 | 0.03 | 1007.7 | ||
| 20260506003514 | -17 | 0.0 | 0.0 | 0.00 | 0.03 | 0.03 | 1007.8 | ||
| 20260506003031 | -17 | 0.0 | 0.0 | 0.00 | 0.03 | 0.03 | 1007.8 | ||
| 20260506002513 | -17 | 0.0 | 0.0 | 0.00 | 0.03 | 0.03 | 1007.7 | ||
| 20260506002014 | -17 | 0.0 | 0.0 | 0.00 | 0.03 | 0.03 | 1007.7 | ||
| 20260506001531 | -17 | 0.0 | 0.0 | 0.00 | 0.03 | 0.03 | 1007.7 | ||
| 20260506001014 | -17 | 0.0 | 0.0 | 0.00 | 0.03 | 0.03 | 1007.8 | ||
| 20260506000514 | -17 | 0.0 | 0.0 | 0.00 | 0.03 | 0.03 | 1007.8 | ||
| 20260506000039 | -17 | 0.0 | 0.0 | 0.00 | 0.03 | 0.03 | 1007.7 | ||
| 20260505235516 | -17 | 0.0 | 0.0 | 0.00 | 0.03 | 0.03 | 1007.7 | ||
| 20260505235013 | -17 | 0.0 | 0.0 | 0.00 | 0.03 | 0.03 | 1007.8 | ||
| 20260505234530 | -17 | 0.0 | 0.0 | 0.00 | 0.03 | 0.03 | 1007.7 | ||
| 20260505234014 | -17 | 0.0 | 0.0 | 0.00 | 0.03 | 0.03 | 1007.7 | ||
| 20260505233516 | -17 | 0.0 | 0.0 | 0.00 | 0.03 | 0.03 | 1007.7 | ||
| 20260505233029 | -17 | 0.0 | 0.0 | 0.00 | 0.03 | 0.03 | 1007.8 | ||
| 20260505232516 | -17 | 0.0 | 0.0 | 0.00 | 0.03 | 0.03 | 1007.8 | ||
| 20260505232013 | -17 | 0.0 | 0.0 | 0.00 | 0.03 | 0.03 | 1007.8 | ||
| 20260505231530 | -17 | 0.0 | 0.0 | 0.00 | 0.03 | 0.03 | 1007.8 | ||
| 20260505231013 | -17 | 0.0 | 0.0 | 0.00 | 0.03 | 0.03 | 1007.7 | ||
| 20260505230516 | -17 | 0.0 | 0.0 | 0.00 | 0.03 | 0.03 | 1007.7 | ||
| 20260505230034 | -17 | 0.0 | 0.0 | 0.00 | 0.03 | 0.03 | 1007.7 | ||
| 20260505225515 | -17 | 0.0 | 0.0 | 0.00 | 0.03 | 0.03 | 1007.8 | ||
| 20260505225015 | -17 | 0.0 | 0.0 | 0.00 | 0.03 | 0.03 | 1007.8 | ||
| 20260505224537 | -17 | 0.0 | 0.0 | 0.00 | 0.03 | 0.03 | 1007.6 | ||
| 20260505224014 | -17 | 0.0 | 0.0 | 0.00 | 0.03 | 0.03 | 1007.6 | ||
| 20260505223517 | -17 | 0.0 | 0.0 | 0.00 | 0.03 | 0.03 | 1007.7 | ||
| 20260505222507 | -17 | 0.0 | 0.0 | 0.00 | 0.03 | 0.03 | 1007.7 | ||
| 20260505222010 | -17 | 0.0 | 0.0 | 0.00 | 0.03 | 0.03 | 1007.7 | ||
| 20260505221516 | -17 | 0.0 | 0.0 | 0.00 | 0.03 | 0.03 | 1007.6 | ||
| 20260505221008 | -17 | 0.0 | 0.0 | 0.00 | 0.03 | 0.03 | 1007.6 | ||
| 20260505220506 | -17 | 0.0 | 0.0 | 0.00 | 0.03 | 0.03 | 1007.7 | ||
| 20260505220026 | -17 | 0.0 | 0.0 | 0.00 | 0.03 | 0.03 | 1007.7 | ||
| 20260505215510 | -17 | 0.0 | 0.0 | 0.00 | 0.03 | 0.03 | 1007.5 | ||
| 20260505215009 | -17 | 0.0 | 0.0 | 0.00 | 0.03 | 0.03 | 1007.7 | ||
| 20260505214519 | -17 | 0.0 | 0.0 | 0.00 | 0.03 | 0.03 | 1007.7 | ||
| 20260505214008 | -17 | 0.0 | 0.0 | 0.00 | 0.03 | 0.03 | 1007.8 | ||
| 20260505213507 | -17 | 0.0 | 0.0 | 0.00 | 0.03 | 0.03 | 1007.9 | ||
| 20260505212506 | -17 | 0.0 | 0.0 | 0.00 | 0.03 | 0.03 | 1008.0 | ||
| 20260505211516 | -17 | 0.0 | 0.0 | 0.00 | 0.03 | 0.03 | 1008.1 | ||
| 20260505211009 | -17 | 0.0 | 0.0 | 0.00 | 0.03 | 0.03 | 1008.1 | ||
| 20260505210508 | -17 | 0.0 | 0.0 | 0.00 | 0.03 | 0.03 | 1008.2 | ||
| 20260505210019 | -17 | 0.0 | 0.0 | 0.00 | 0.03 | 0.03 | 1008.2 | ||
| 20260505205515 | -17 | 0.0 | 0.0 | 0.00 | 0.03 | 0.03 | 1008.3 | ||
| 20260505205013 | -17 | 0.0 | 0.0 | 0.00 | 0.03 | 0.03 | 1008.4 | ||
| 20260505204527 | -17 | 0.0 | 0.0 | 0.00 | 0.03 | 0.03 | 1008.5 | ||
| 20260505204007 | -17 | 0.0 | 0.0 | 0.00 | 0.03 | 0.03 | 1008.7 | ||
| 20260505203506 | -17 | 0.0 | 0.0 | 0.00 | 0.03 | 0.03 | 1008.7 | ||
| 20260505203017 | -17 | 0.0 | 0.0 | 0.00 | 0.03 | 0.03 | 1008.9 | ||
| 20260505202509 | -17 | 0.0 | 0.0 | 0.00 | 0.03 | 0.03 | 1008.9 | ||
| 20260505202007 | -17 | 0.0 | 0.0 | 0.00 | 0.03 | 0.03 | 1008.9 | ||
| 20260505200024 | -17 | 0.0 | 0.0 | 0.00 | 0.03 | 0.03 | 1009.2 | ||
| 20260505195010 | -17 | 0.0 | 0.0 | 0.00 | 0.03 | 0.03 | 1009.3 | ||
| 20260505194519 | -17 | 0.0 | 0.0 | 0.00 | 0.03 | 0.03 | 1009.4 | ||
| 20260505194012 | -17 | 0.0 | 0.0 | 0.00 | 0.03 | 0.03 | 1009.4 | ||
| 20260505193507 | -17 | 0.0 | 0.0 | 0.00 | 0.03 | 0.03 | 1009.6 | ||
| 20260505193037 | -17 | 0.0 | 0.0 | 0.00 | 0.03 | 0.03 | 1009.6 | ||
| 20260505192506 | -17 | 0.0 | 0.0 | 0.00 | 0.03 | 0.03 | 1009.5 | ||
| 20260505192008 | -17 | 0.0 | 0.0 | 0.00 | 0.03 | 0.03 | 1009.5 | ||
| 20260505191519 | -17 | 0.0 | 0.0 | 0.00 | 0.03 | 0.03 | 1009.5 | ||
| 20260505191009 | -17 | 0.0 | 0.0 | 0.00 | 0.03 | 0.03 | 1009.7 | ||
| 20260505190507 | -17 | 0.0 | 0.0 | 0.00 | 0.03 | 0.03 | 1009.8 | ||
| 20260505190031 | -17 | 0.0 | 0.0 | 0.00 | 0.03 | 0.03 | 1009.8 | ||
| 20260505185515 | -17 | 0.0 | 0.0 | 0.00 | 0.03 | 0.03 | 1009.7 | ||
| 20260505185006 | -17 | 0.0 | 0.0 | 0.00 | 0.03 | 0.03 | 1009.8 | ||
| 20260505184525 | -17 | 0.0 | 0.0 | 0.00 | 0.03 | 0.03 | 1009.6 | ||
| 20260505184009 | -17 | 0.0 | 0.0 | 0.00 | 0.03 | 0.03 | 1009.6 | ||
| 20260505183507 | -17 | 0.0 | 0.0 | 0.00 | 0.03 | 0.03 | 1009.7 | ||
| 20260505183039 | -17 | 0.0 | 0.0 | 0.00 | 0.03 | 0.03 | 1009.8 | ||
| 20260505182507 | -17 | 0.0 | 0.0 | 0.00 | 0.03 | 0.03 | 1009.6 | ||
| 20260505182013 | -17 | 0.0 | 0.0 | 0.00 | 0.03 | 0.03 | 1009.6 | ||
| 20260505181522 | -17 | 0.0 | 0.0 | 0.00 | 0.03 | 0.03 | 1009.7 | ||
| 20260505181018 | -17 | 0.0 | 0.0 | 0.00 | 0.03 | 0.03 | 1009.7 | ||
| 20260505180511 | -17 | 0.0 | 0.0 | 0.00 | 0.03 | 0.03 | 1009.7 | ||
| 20260505180033 | -17 | 0.0 | 0.0 | 0.00 | 0.03 | 0.03 | 1009.8 | ||
| 20260505175508 | -17 | 0.0 | 0.0 | 0.00 | 0.03 | 0.03 | 1009.9 | ||
| 20260505175009 | -17 | 0.0 | 0.0 | 0.00 | 0.03 | 0.03 | 1010.1 | ||
| 20260505174530 | -17 | 0.0 | 0.0 | 0.00 | 0.03 | 0.03 | 1010.0 | ||
| 20260505174011 | -17 | 0.0 | 0.0 | 0.00 | 0.03 | 0.03 | 1010.2 | ||
| 20260505173509 | -17 | 0.0 | 0.0 | 0.00 | 0.03 | 0.03 | 1010.3 | ||
| 20260505173034 | -17 | 0.0 | 0.0 | 0.00 | 0.03 | 0.03 | 1010.2 | ||
| 20260505172511 | -17 | 0.0 | 0.0 | 0.00 | 0.03 | 0.03 | 1010.3 | ||
| 20260505172011 | -17 | 0.0 | 0.0 | 0.00 | 0.03 | 0.03 | 1010.4 | ||
| 20260505171530 | -17 | 0.0 | 0.0 | 0.00 | 0.03 | 0.03 | 1010.3 | ||
| 20260505171010 | -17 | 0.0 | 0.0 | 0.00 | 0.03 | 0.03 | 1010.4 | ||
| 20260505170514 | -17 | 0.0 | 0.0 | 0.00 | 0.03 | 0.03 | 1010.4 | ||
| 20260505170025 | -17 | 0.0 | 0.0 | 0.00 | 0.03 | 0.03 | 1010.5 | ||
| 20260505165512 | -17 | 0.0 | 0.0 | 0.00 | 0.03 | 0.03 | 1010.4 | ||
| 20260505165007 | -17 | 0.0 | 0.0 | 0.00 | 0.03 | 0.03 | 1010.4 | ||
| 20260505164533 | -17 | 0.0 | 0.0 | 0.00 | 0.03 | 0.03 | 1010.4 | ||
| 20260505164008 | -17 | 0.0 | 0.0 | 0.00 | 0.03 | 0.03 | 1010.3 | ||
| 20260505163510 | -17 | 0.0 | 0.0 | 0.00 | 0.03 | 0.03 | 1010.3 | ||
| 20260505163024 | -17 | 0.0 | 0.0 | 0.00 | 0.03 | 0.03 | 1010.2 | ||
| 20260505162509 | -17 | 0.0 | 0.0 | 0.00 | 0.03 | 0.03 | 1010.2 | ||
| 20260505162011 | -17 | 0.0 | 0.0 | 0.00 | 0.03 | 0.03 | 1010.1 | ||
| 20260505161525 | -17 | 0.0 | 0.0 | 0.00 | 0.03 | 0.03 | 1010.1 | ||
| 20260505161013 | -17 | 0.0 | 0.0 | 0.00 | 0.03 | 0.03 | 1010.2 | ||
| 20260505160508 | -17 | 0.0 | 0.0 | 0.00 | 0.03 | 0.03 | 1010.1 | ||
| 20260505153029 | -17 | 0.0 | 0.0 | 0.00 | 0.03 | 0.03 | 1010.2 | ||
| 20260505152509 | -17 | 0.0 | 0.0 | 0.00 | 0.03 | 0.03 | 1010.4 | ||
| 20260505152015 | -17 | 0.0 | 0.0 | 0.00 | 0.05 | 0.03 | 1010.3 | ||
| 20260505151525 | -17 | 0.0 | 0.0 | 0.00 | 0.05 | 0.03 | 1010.3 | ||
| 20260505151008 | -17 | 0.0 | 0.0 | 0.00 | 0.05 | 0.03 | 1010.2 | ||
| 20260505150517 | -17 | 0.0 | 0.0 | 0.00 | 0.05 | 0.03 | 1010.1 | ||
| 20260505140519 | -17 | 0.0 | 0.0 | 0.00 | 0.05 | 0.03 | 1009.9 | ||
| 20260505125010 | -17 | 0.0 | 0.0 | 0.00 | 0.05 | 0.03 | 1009.4 | ||
| 20260505124526 | -17 | 0.0 | 0.0 | 0.00 | 0.05 | 0.03 | 1009.4 | ||
| 20260505124009 | -17 | 0.0 | 0.0 | 0.00 | 0.05 | 0.03 | 1009.5 | ||
| 20260505123511 | -17 | 0.0 | 0.0 | 0.00 | 0.05 | 0.03 | 1009.4 | ||
| 20260505123045 | -17 | 0.0 | 0.0 | 0.00 | 0.05 | 0.03 | 1009.5 | ||
| 20260505122511 | -17 | 0.0 | 0.0 | 0.00 | 0.05 | 0.03 | 1009.5 | ||
| 20260505122013 | -17 | 0.0 | 0.0 | 0.00 | 0.05 | 0.03 | 1009.4 | ||
| 20260505121534 | -17 | 0.0 | 0.0 | 0.00 | 0.05 | 0.03 | 1009.4 | ||
| 20260505121010 | -17 | 0.0 | 0.0 | 0.00 | 0.05 | 0.03 | 1009.5 | ||
| 20260505120037 | -17 | 0.0 | 0.0 | 0.00 | 0.05 | 0.03 | 1009.5 | ||
| 20260505115512 | 20 | 0.0 | 0.0 | 0.00 | 0.05 | 0.03 | 90 | 1009.4 | |
| 20260505115006 | 20 | 4.8 | 19.3 | 0.00 | 0.05 | 0.03 | 90 | 1009.3 | |
| 20260505114507 | 20 | 30 | 6.4 | 16.1 | 0.00 | 0.05 | 0.03 | 90 | 1009.2 |
| 20260505114002 | 20 | 360 | 4.8 | 9.7 | 0.00 | 0.05 | 0.03 | 90 | 1009.3 |
| 20260505113503 | 20 | 360 | 4.8 | 12.9 | 0.00 | 0.05 | 0.03 | 90 | 1009.4 |
| 20260505113010 | 20 | 34 | 3.2 | 12.9 | 0.00 | 0.05 | 0.03 | 90 | 1009.3 |
| 20260505112507 | 20 | 360 | 3.2 | 12.9 | 0.00 | 0.05 | 0.03 | 90 | 1009.3 |
| 20260505112008 | 20 | 35 | 3.2 | 9.7 | 0.00 | 0.05 | 0.03 | 90 | 1009.3 |
| 20260505111507 | 20 | 30 | 3.2 | 8.0 | 0.00 | 0.05 | 0.03 | 90 | 1009.3 |
| 20260505111003 | 20 | 37 | 4.8 | 8.0 | 0.00 | 0.05 | 0.03 | 90 | 1009.2 |
| 20260505110502 | 19 | 35 | 3.2 | 8.0 | 0.00 | 0.05 | 0.03 | 90 | 1009.2 |
| 20260505102004 | 19 | 25 | 3.2 | 12.9 | 0.00 | 0.05 | 0.03 | 89 | 1009.3 |
| 20260505101515 | 19 | 30 | 4.8 | 12.9 | 0.00 | 0.05 | 0.03 | 89 | 1009.3 |
| 20260505101007 | 19 | 32 | 1.6 | 9.7 | 0.00 | 0.05 | 0.03 | 89 | 1009.3 |
| 20260505100507 | 19 | 32 | 3.2 | 9.7 | 0.00 | 0.05 | 0.03 | 89 | 1009.2 |
| 20260505100003 | 19 | 28 | 1.6 | 14.5 | 0.00 | 0.05 | 0.03 | 89 | 1009.4 |
| 20260505095502 | 20 | 28 | 3.2 | 16.1 | 0.00 | 0.05 | 0.03 | 89 | 1009.3 |
| 20260505095002 | 20 | 29 | 1.6 | 16.1 | 0.00 | 0.05 | 0.03 | 89 | 1009.4 |
| 20260505094504 | 19 | 32 | 1.6 | 12.9 | 0.00 | 0.05 | 0.03 | 89 | 1009.5 |
| 20260505094007 | 19 | 24 | 3.2 | 12.9 | 0.00 | 0.05 | 0.03 | 89 | 1009.6 |
| 20260505093005 | 19 | 23 | 1.6 | 9.7 | 0.00 | 0.05 | 0.03 | 89 | 1009.7 |
| 20260505092503 | 19 | 33 | 3.2 | 9.7 | 0.00 | 0.05 | 0.03 | 88 | 1009.8 |
| 20260505092007 | 19 | 34 | 1.6 | 9.7 | 0.00 | 0.05 | 0.03 | 88 | 1009.8 |
| 20260505091506 | 19 | 34 | 3.2 | 9.7 | 0.00 | 0.05 | 0.03 | 88 | 1009.8 |
| 20260505091009 | 19 | 36 | 3.2 | 9.7 | 0.00 | 0.05 | 0.03 | 88 | 1009.7 |
| 20260505090503 | 19 | 26 | 1.6 | 12.9 | 0.00 | 0.05 | 0.03 | 88 | 1009.8 |
| 20260505090043 | 19 | 360 | 0.0 | 12.9 | 0.00 | 0.05 | 0.03 | 88 | 1009.8 |
| 20260505085507 | 19 | 32 | 3.2 | 8.0 | 0.00 | 0.05 | 0.03 | 88 | 1009.9 |
| 20260505085009 | 19 | 26 | 3.2 | 9.7 | 0.03 | 0.05 | 0.03 | 88 | 1010.0 |